Tucson Davis Monthan, AZ

12:27 PM MST on July 22, 2017 (GMT -0700)
Davis-Monthan Air Force Base

Weather History for KDMA - February, 2014

Change the Weather History Date:

Sunday, February 2, 2014

  Actual Average Record
Temperature  
Mean Temperature 46 °F -  
Max Temperature 58 °F 65 °F 78 °F (1976)
Min Temperature 35 °F 38 °F 24 °F (1985)
Degree Days  
Heating Degree Days 18    
Moisture  
Dew Point 22 °F    
Average Humidity 37    
Maximum Humidity 62    
Minimum Humidity 25    
Precipitation  
Precipitation 0.00 in - - ()
Sea Level Pressure  
Sea Level Pressure 29.98 in    
Wind  
Wind Speed 5 mph (SW)    
Max Wind Speed 8 mph    
Max Gust Speed -    
Visibility 10 miles    
Events      
Averages and records for this station are not official NWS values.
T = Trace of Precipitation, MM = Missing Value Source: NWS Daily Summary

Daily Weather History Graph

Daily Weather History Graph

Search for Another Location

Airport or City:

Trip Planner

Search our weather history database for the weather conditions in past years. The results will help you decide how hot, cold, wet, or windy it might be!

Date:

Astronomy

Feb. 02, 2014 Rise Set
Actual Time 7:16 AM MST 5:58 PM MST
Civil Twilight 6:51 AM MST 6:23 PM MST
Nautical Twilight 6:21 AM MST 6:53 PM MST
Astronomical Twilight 5:52 AM MST 7:21 PM MST
Moon 8:59 AM MST (2/2) 9:29 PM MST (2/2)
Length of Visible Light 11h 32m
Length of Day
10h 41m
Waxing Crescent, 12% of the Moon is Illuminated
Feb 2
Waxing Crescent
Feb 6
First Quarter
Feb 14
Full
Feb 22
Last Quarter
Mar 1
New

Hourly Weather History & Observations

Time (MST) Temp. Windchill Dew Point Humidity Pressure Visibility Wind Dir Wind Speed Gust Speed Precip Events Conditions
12:58 AM 47.5 °F - 19.9 °F 34% 29.92 in 10.0 mi WNW 8.1 mph - N/A   Clear
1:58 AM 45.5 °F 41.8 °F 19.6 °F 36% 29.94 in 10.0 mi West 6.9 mph - N/A   Clear
2:58 AM 43.7 °F 40.3 °F 18.7 °F 37% 29.96 in 10.0 mi West 5.8 mph - N/A   Clear
3:58 AM 40.6 °F - 19.0 °F 42% 29.98 in 10.0 mi Calm Calm - N/A   Clear
4:58 AM 37.6 °F 33.1 °F 21.0 °F 51% 29.99 in 10.0 mi South 5.8 mph - N/A   Partly Cloudy
5:58 AM 37.0 °F 31.6 °F 20.7 °F 52% 30.01 in 10.0 mi South 6.9 mph - N/A   Partly Cloudy
6:58 AM 35.8 °F 31.9 °F 22.8 °F 59% 30.04 in 10.0 mi SE 4.6 mph - N/A   Clear
7:58 AM 35.8 °F 30.9 °F 23.9 °F 62% 30.04 in 10.0 mi SSE 5.8 mph - N/A   Clear
8:58 AM 42.1 °F 40.2 °F 23.7 °F 48% 30.05 in 10.0 mi South 3.5 mph - N/A   Clear
9:58 AM 47.8 °F - 22.5 °F 37% 30.07 in 10.0 mi SSE 4.6 mph - N/A   Clear
10:58 AM 51.6 °F - 19.0 °F 28% 30.05 in 10.0 mi SE 3.5 mph - N/A   Clear
11:58 AM 53.6 °F - 21.7 °F 29% 30.02 in 10.0 mi Variable 3.5 mph - N/A   Clear
12:58 PM 56.1 °F - 21.9 °F 27% 29.99 in 10.0 mi WSW 4.6 mph - N/A   Clear
1:58 PM 56.7 °F - 21.6 °F 26% 29.95 in 10.0 mi NNE 3.5 mph - N/A   Clear
2:58 PM 58.1 °F - 21.7 °F 25% 29.94 in 10.0 mi North 5.8 mph - N/A   Partly Cloudy
3:58 PM 58.5 °F - 22.1 °F 25% 29.94 in 10.0 mi Variable 1.2 mph - N/A   Partly Cloudy
4:58 PM 57.9 °F - 21.6 °F 25% 29.94 in 10.0 mi NNE 5.8 mph - N/A   Partly Cloudy
5:58 PM 56.8 °F - 21.6 °F 25% 29.94 in 10.0 mi North 4.6 mph - N/A   Mostly Cloudy
6:58 PM 55.9 °F - 21.7 °F 27% 29.96 in 10.0 mi NNE 3.5 mph - N/A   Mostly Cloudy
7:58 PM 52.9 °F - 22.5 °F 31% 29.96 in 10.0 mi NW 5.8 mph - N/A   Mostly Cloudy
8:58 PM 51.4 °F - 21.7 °F 31% 29.95 in 10.0 mi WNW 3.5 mph - N/A   Scattered Clouds
9:58 PM 46.9 °F - 24.6 °F 42% 29.94 in 10.0 mi SW 3.5 mph - N/A   Mostly Cloudy
10:58 PM 45.5 °F 43.2 °F 23.5 °F 42% 29.94 in 10.0 mi SSE 4.6 mph - N/A   Mostly Cloudy
11:58 PM 43.3 °F 39.9 °F 22.6 °F 44% 29.93 in 10.0 mi South 5.8 mph - N/A   Clear